| time (UTC) | temp C | wind direction | speed KPH | gust KPH | rain 1hr cm | rain 24hr cm | rain mn cm | humidity % | barometer mb |
| 20260509213115 | 33 | 145 | 3.2 | 3.2 | 0.00 | 0.00 | 0.00 | 41 | 1009.0 |
| 20260509212613 | 33 | 326 | 0.0 | 4.8 | 0.00 | 0.00 | 0.00 | 41 | 1008.9 |
| 20260509212109 | 35 | 310 | 0.0 | 4.8 | 0.00 | 0.00 | 0.00 | 41 | 1009.1 |
| 20260509211605 | 33 | 0 | 3.2 | 6.4 | 0.00 | 0.00 | 0.00 | 41 | 1009.2 |
| 20260509211102 | 32 | 197 | 4.8 | 11.3 | 0.00 | 0.00 | 0.00 | 42 | 1009.0 |
| 20260509210559 | 34 | 240 | 4.8 | 4.8 | 0.00 | 0.00 | 0.00 | 39 | 1009.0 |
| 20260509210056 | 34 | 204 | 3.2 | 3.2 | 0.00 | 0.00 | 0.00 | 39 | 1009.2 |
| 20260509205550 | 34 | 251 | 0.0 | 1.6 | 0.00 | 0.00 | 0.00 | 41 | 1009.2 |
| 20260509205045 | 32 | 201 | 1.6 | 8.0 | 0.00 | 0.00 | 0.00 | 42 | 1009.3 |
| 20260509204542 | 32 | 205 | 3.2 | 6.4 | 0.00 | 0.00 | 0.00 | 40 | 1009.3 |
| 20260509204038 | 33 | 268 | 0.0 | 3.2 | 0.00 | 0.00 | 0.00 | 40 | 1009.5 |
| 20260509203534 | 32 | 228 | 0.0 | 8.0 | 0.00 | 0.00 | 0.00 | 42 | 1009.5 |
| 20260509203033 | 34 | 230 | 1.6 | 3.2 | 0.00 | 0.00 | 0.00 | 39 | 1009.5 |
| 20260509202532 | 34 | 190 | 1.6 | 3.2 | 0.00 | 0.00 | 0.00 | 38 | 1009.6 |
| 20260509202028 | 33 | 202 | 3.2 | 6.4 | 0.00 | 0.00 | 0.00 | 40 | 1009.8 |
| 20260509201523 | 33 | 211 | 1.6 | 8.0 | 0.00 | 0.00 | 0.00 | 41 | 1009.8 |
| 20260509201021 | 33 | 251 | 0.0 | 3.2 | 0.00 | 0.00 | 0.00 | 40 | 1010.0 |
| 20260509200521 | 32 | 322 | 1.6 | 6.4 | 0.00 | 0.00 | 0.00 | 42 | 1009.8 |
| 20260509200019 | 33 | 357 | 6.4 | 8.0 | 0.00 | 0.00 | 0.00 | 40 | 1009.9 |
| 20260509195514 | 32 | 353 | 3.2 | 6.4 | 0.00 | 0.00 | 0.00 | 41 | 1010.2 |
| 20260509195013 | 32 | 352 | 0.0 | 8.0 | 0.00 | 0.00 | 0.00 | 42 | 1010.2 |
| 20260509194509 | 32 | 14 | 3.2 | 6.4 | 0.00 | 0.00 | 0.00 | 41 | 1010.1 |
| 20260509194007 | 32 | 286 | 1.6 | 9.7 | 0.00 | 0.00 | 0.00 | 40 | 1010.3 |
| 20260509193506 | 32 | 267 | 1.6 | 8.0 | 0.00 | 0.00 | 0.00 | 39 | 1010.2 |
| 20260509193003 | 33 | 343 | 0.0 | 4.8 | 0.00 | 0.00 | 0.00 | 42 | 1010.2 |
| 20260509192459 | 32 | 296 | 1.6 | 3.2 | 0.00 | 0.00 | 0.00 | 41 | 1010.3 |
| 20260509191954 | 32 | 349 | 3.2 | 3.2 | 0.00 | 0.00 | 0.00 | 41 | 1010.2 |
| 20260509191450 | 31 | 72 | 1.6 | 16.1 | 0.00 | 0.00 | 0.00 | 43 | 1010.2 |
| 20260509190945 | 31 | 2 | 9.7 | 14.5 | 0.00 | 0.00 | 0.00 | 45 | 1010.3 |
| 20260509190443 | 32 | 20 | 1.6 | 6.4 | 0.00 | 0.00 | 0.00 | 46 | 1010.4 |
| 20260509185941 | 32 | 6 | 4.8 | 4.8 | 0.00 | 0.00 | 0.00 | 45 | 1010.4 |
| 20260509185438 | 32 | 5 | 3.2 | 4.8 | 0.00 | 0.00 | 0.00 | 46 | 1010.5 |
| 20260509184935 | 31 | 262 | 3.2 | 4.8 | 0.00 | 0.00 | 0.00 | 45 | 1010.6 |
| 20260509184433 | 31 | 1 | 3.2 | 6.4 | 0.00 | 0.00 | 0.00 | 47 | 1010.6 |
| 20260509183929 | 31 | 356 | 6.4 | 6.4 | 0.00 | 0.00 | 0.00 | 47 | 1010.6 |
| 20260509183428 | 31 | 356 | 3.2 | 4.8 | 0.00 | 0.00 | 0.00 | 46 | 1010.7 |
| 20260509182925 | 31 | 7 | 3.2 | 8.0 | 0.00 | 0.00 | 0.00 | 47 | 1010.7 |
| 20260509182422 | 32 | 9 | 6.4 | 12.9 | 0.00 | 0.00 | 0.00 | 47 | 1010.7 |
| 20260509181919 | 31 | 293 | 3.2 | 8.0 | 0.00 | 0.00 | 0.00 | 46 | 1010.7 |
| 20260509181417 | 31 | 330 | 4.8 | 8.0 | 0.00 | 0.00 | 0.00 | 47 | 1010.8 |
| 20260509180914 | 31 | 339 | 6.4 | 8.0 | 0.00 | 0.00 | 0.00 | 47 | 1010.8 |
| 20260509180409 | 30 | 318 | 6.4 | 8.0 | 0.00 | 0.00 | 0.00 | 48 | 1011.0 |
| 20260509175907 | 30 | 281 | 3.2 | 8.0 | 0.00 | 0.00 | 0.00 | 49 | 1011.0 |
| 20260509175403 | 30 | 11 | 6.4 | 9.7 | 0.00 | 0.00 | 0.00 | 50 | 1011.1 |
| 20260509174859 | 29 | 3 | 4.8 | 14.5 | 0.00 | 0.00 | 0.00 | 51 | 1011.1 |
| 20260509174355 | 29 | 358 | 3.2 | 8.0 | 0.00 | 0.00 | 0.00 | 51 | 1011.2 |
| 20260509173851 | 30 | 291 | 6.4 | 6.4 | 0.00 | 0.00 | 0.00 | 50 | 1011.5 |
| 20260509173346 | 29 | 284 | 6.4 | 11.3 | 0.00 | 0.00 | 0.00 | 50 | 1011.2 |
| 20260509172843 | 28 | 343 | 4.8 | 8.0 | 0.00 | 0.00 | 0.00 | 52 | 1011.3 |
| 20260509172340 | 30 | 21 | 8.0 | 11.3 | 0.00 | 0.00 | 0.00 | 50 | 1011.2 |
| 20260509171836 | 30 | 301 | 3.2 | 9.7 | 0.00 | 0.00 | 0.00 | 49 | 1011.4 |
| 20260509171332 | 29 | 301 | 4.8 | 9.7 | 0.00 | 0.00 | 0.00 | 49 | 1011.5 |
| 20260509170828 | 29 | 350 | 3.2 | 9.7 | 0.00 | 0.00 | 0.00 | 51 | 1011.4 |
| 20260509170324 | 30 | 15 | 6.4 | 8.0 | 0.00 | 0.00 | 0.00 | 50 | 1011.4 |
| 20260509165824 | 29 | 317 | 6.4 | 8.0 | 0.00 | 0.00 | 0.00 | 50 | 1011.6 |
| 20260509165318 | 29 | 240 | 4.8 | 11.3 | 0.00 | 0.00 | 0.00 | 51 | 1011.7 |
| 20260509164815 | 28 | 1 | 8.0 | 9.7 | 0.00 | 0.00 | 0.00 | 54 | 1011.7 |
| 20260509164311 | 28 | 358 | 3.2 | 14.5 | 0.00 | 0.00 | 0.00 | 54 | 1011.7 |
| 20260509163808 | 28 | 341 | 6.4 | 11.3 | 0.00 | 0.00 | 0.00 | 54 | 1011.6 |
| 20260509163305 | 29 | 328 | 3.2 | 6.4 | 0.00 | 0.00 | 0.00 | 53 | 1011.8 |
| 20260509162804 | 28 | 260 | 6.4 | 9.7 | 0.00 | 0.00 | 0.00 | 52 | 1011.6 |
| 20260509162306 | 27 | 349 | 8.0 | 16.1 | 0.00 | 0.00 | 0.00 | 54 | 1011.5 |
| 20260509161759 | 28 | 1 | 8.0 | 9.7 | 0.00 | 0.00 | 0.00 | 54 | 1011.4 |
| 20260509161255 | 28 | 11 | 3.2 | 8.0 | 0.00 | 0.00 | 0.00 | 55 | 1011.5 |
| 20260509160750 | 28 | 359 | 9.7 | 11.3 | 0.00 | 0.00 | 0.00 | 53 | 1011.6 |
| 20260509160247 | 27 | 280 | 3.2 | 11.3 | 0.00 | 0.00 | 0.00 | 54 | 1011.6 |
| 20260509155742 | 27 | 326 | 3.2 | 11.3 | 0.00 | 0.00 | 0.00 | 54 | 1011.4 |
| 20260509155239 | 27 | 306 | 3.2 | 12.9 | 0.00 | 0.00 | 0.00 | 53 | 1011.4 |
| 20260509154735 | 27 | 4 | 4.8 | 11.3 | 0.00 | 0.00 | 0.00 | 53 | 1011.4 |
| 20260509154232 | 27 | 297 | 3.2 | 6.4 | 0.00 | 0.00 | 0.00 | 55 | 1011.6 |
| 20260509153730 | 27 | 34 | 8.0 | 12.9 | 0.00 | 0.00 | 0.00 | 56 | 1011.7 |
| 20260509153225 | 27 | 312 | 4.8 | 8.0 | 0.00 | 0.00 | 0.00 | 58 | 1011.4 |
| 20260509152722 | 27 | 336 | 3.2 | 9.7 | 0.00 | 0.00 | 0.00 | 57 | 1011.5 |
| 20260509152219 | 26 | 347 | 4.8 | 9.7 | 0.00 | 0.00 | 0.00 | 59 | 1011.4 |
| 20260509151715 | 26 | 35 | 3.2 | 8.0 | 0.00 | 0.00 | 0.00 | 62 | 1011.4 |
| 20260509151212 | 26 | 10 | 8.0 | 9.7 | 0.00 | 0.00 | 0.00 | 62 | 1011.2 |
| 20260509150710 | 26 | 14 | 4.8 | 4.8 | 0.00 | 0.00 | 0.00 | 65 | 1011.2 |
| 20260509150208 | 26 | 35 | 8.0 | 8.0 | 0.00 | 0.00 | 0.00 | 66 | 1011.3 |
| 20260509145704 | 26 | 295 | 4.8 | 6.4 | 0.00 | 0.00 | 0.00 | 67 | 1011.3 |
| 20260509145200 | 25 | 294 | 3.2 | 8.0 | 0.00 | 0.00 | 0.00 | 69 | 1011.4 |
| 20260509144656 | 25 | 262 | 3.2 | 6.4 | 0.00 | 0.00 | 0.00 | 70 | 1011.5 |
| 20260509144154 | 25 | 72 | 3.2 | 4.8 | 0.00 | 0.00 | 0.00 | 71 | 1011.5 |
| 20260509143651 | 25 | 343 | 3.2 | 6.4 | 0.00 | 0.00 | 0.00 | 72 | 1011.6 |
| 20260509143148 | 24 | 37 | 4.8 | 9.7 | 0.00 | 0.00 | 0.00 | 72 | 1011.6 |
| 20260509142643 | 24 | 318 | 6.4 | 8.0 | 0.00 | 0.00 | 0.00 | 74 | 1011.8 |
| 20260509142141 | 23 | 313 | 6.4 | 8.0 | 0.00 | 0.00 | 0.00 | 75 | 1011.7 |
| 20260509141636 | 23 | 325 | 4.8 | 6.4 | 0.00 | 0.00 | 0.00 | 76 | 1011.8 |
| 20260509141132 | 23 | 288 | 1.6 | 4.8 | 0.00 | 0.00 | 0.00 | 77 | 1011.7 |
| 20260509140630 | 23 | 292 | 3.2 | 8.0 | 0.00 | 0.00 | 0.00 | 77 | 1011.5 |
| 20260509140128 | 22 | 293 | 11.3 | 12.9 | 0.00 | 0.00 | 0.00 | 78 | 1011.5 |
| 20260509135624 | 23 | 16 | 1.6 | 6.4 | 0.00 | 0.00 | 0.00 | 78 | 1011.4 |
| 20260509135123 | 22 | 308 | 4.8 | 6.4 | 0.00 | 0.00 | 0.00 | 78 | 1011.4 |
| 20260509134619 | 22 | 32 | 4.8 | 8.0 | 0.00 | 0.00 | 0.00 | 79 | 1011.5 |
| 20260509134117 | 22 | 266 | 4.8 | 12.9 | 0.00 | 0.00 | 0.00 | 79 | 1011.4 |
| 20260509133614 | 22 | 19 | 1.6 | 6.4 | 0.00 | 0.00 | 0.00 | 80 | 1011.3 |
| 20260509133111 | 22 | 338 | 3.2 | 6.4 | 0.00 | 0.00 | 0.00 | 80 | 1011.3 |
| 20260509132609 | 22 | 273 | 1.6 | 8.0 | 0.00 | 0.00 | 0.00 | 80 | 1011.3 |
| 20260509132107 | 22 | 290 | 3.2 | 9.7 | 0.00 | 0.00 | 0.00 | 81 | 1011.1 |
| 20260509131603 | 21 | 322 | 0.0 | 6.4 | 0.00 | 0.00 | 0.00 | 83 | 1011.1 |
| 20260509131100 | 21 | 273 | 3.2 | 8.0 | 0.00 | 0.00 | 0.00 | 83 | 1011.1 |
| 20260509130555 | 21 | 289 | 6.4 | 11.3 | 0.00 | 0.00 | 0.00 | 83 | 1011.2 |
| 20260509130053 | 21 | 29 | 9.7 | 9.7 | 0.00 | 0.00 | 0.00 | 84 | 1011.1 |
| 20260509125549 | 21 | 134 | 0.0 | 4.8 | 0.00 | 0.00 | 0.00 | 85 | 1011.1 |
| 20260509125046 | 21 | 315 | 4.8 | 6.4 | 0.00 | 0.00 | 0.00 | 86 | 1011.0 |
| 20260509124542 | 20 | 62 | 0.0 | 4.8 | 0.00 | 0.00 | 0.00 | 87 | 1011.0 |
| 20260509124039 | 20 | 83 | 1.6 | 3.2 | 0.00 | 0.00 | 0.00 | 88 | 1011.0 |
| 20260509123537 | 20 | 226 | 0.0 | 4.8 | 0.00 | 0.00 | 0.00 | 90 | 1010.9 |
| 20260509123033 | 20 | 180 | 3.2 | 3.2 | 0.00 | 0.00 | 0.00 | 93 | 1011.0 |
| 20260509122530 | 20 | 198 | 0.0 | 3.2 | 0.00 | 0.00 | 0.00 | 94 | 1011.0 |
| 20260509122027 | 20 | 64 | 0.0 | 3.2 | 0.00 | 0.00 | 0.00 | 94 | 1011.0 |
| 20260509121523 | 20 | 199 | 0.0 | 3.2 | 0.00 | 0.00 | 0.00 | 94 | 1010.9 |
| 20260509121021 | 20 | 58 | 0.0 | 3.2 | 0.00 | 0.00 | 0.00 | 93 | 1010.7 |
| 20260509120519 | 20 | 124 | 0.0 | 1.6 | 0.00 | 0.00 | 0.00 | 93 | 1010.7 |
| 20260509120017 | 20 | 336 | 0.0 | 3.2 | 0.00 | 0.00 | 0.00 | 93 | 1010.7 |
| 20260509115514 | 20 | 4 | 1.6 | 3.2 | 0.00 | 0.00 | 0.00 | 92 | 1010.8 |
| 20260509115012 | 20 | 11 | 0.0 | 1.6 | 0.00 | 0.00 | 0.00 | 91 | 1010.8 |
| 20260509114510 | 20 | 199 | 1.6 | 3.2 | 0.00 | 0.00 | 0.00 | 91 | 1010.6 |
| 20260509114009 | 21 | 89 | 0.0 | 3.2 | 0.00 | 0.00 | 0.00 | 91 | 1010.8 |
| 20260509113506 | 21 | 161 | 1.6 | 4.8 | 0.00 | 0.00 | 0.00 | 90 | 1010.7 |
| 20260509113004 | 21 | 22 | 0.0 | 3.2 | 0.00 | 0.00 | 0.00 | 90 | 1010.6 |
| 20260509112500 | 21 | 189 | 4.8 | 9.7 | 0.00 | 0.00 | 0.00 | 90 | 1010.4 |
| 20260509111956 | 21 | 138 | 1.6 | 3.2 | 0.00 | 0.00 | 0.00 | 88 | 1010.6 |
| 20260509111454 | 21 | 220 | 0.0 | 1.6 | 0.00 | 0.00 | 0.00 | 87 | 1010.6 |
| 20260509110951 | 21 | 79 | 0.0 | 1.6 | 0.00 | 0.00 | 0.00 | 87 | 1010.6 |
| 20260509110447 | 22 | 42 | 1.6 | 1.6 | 0.00 | 0.00 | 0.00 | 86 | 1010.5 |
| 20260509105945 | 22 | 303 | 0.0 | 4.8 | 0.00 | 0.00 | 0.00 | 86 | 1010.7 |
| 20260509105443 | 22 | 259 | 3.2 | 4.8 | 0.00 | 0.00 | 0.00 | 87 | 1010.6 |
| 20260509104940 | 21 | 293 | 1.6 | 6.4 | 0.00 | 0.00 | 0.00 | 88 | 1010.5 |
| 20260509104437 | 21 | 251 | 0.0 | 3.2 | 0.00 | 0.00 | 0.00 | 90 | 1010.4 |
| 20260509103934 | 21 | 51 | 1.6 | 4.8 | 0.00 | 0.00 | 0.00 | 90 | 1010.4 |
| 20260509103432 | 21 | 78 | 1.6 | 4.8 | 0.00 | 0.00 | 0.00 | 91 | 1010.5 |
| 20260509102930 | 21 | 56 | 3.2 | 4.8 | 0.00 | 0.00 | 0.00 | 91 | 1010.3 |
| 20260509102427 | 21 | 12 | 8.0 | 12.9 | 0.00 | 0.00 | 0.00 | 92 | 1010.2 |
| 20260509101923 | 21 | 331 | 4.8 | 9.7 | 0.00 | 0.00 | 0.00 | 92 | 1010.3 |
| 20260509101419 | 21 | 8 | 8.0 | 9.7 | 0.00 | 0.00 | 0.00 | 93 | 1010.0 |
| 20260509100917 | 21 | 321 | 6.4 | 14.5 | 0.00 | 0.00 | 0.00 | 93 | 1010.0 |
| 20260509100414 | 21 | 206 | 4.8 | 17.7 | 0.00 | 0.00 | 0.00 | 93 | 1008.7 |
| 20260509095910 | 21 | 196 | 12.9 | 22.5 | 0.00 | 0.00 | 0.00 | 93 | 1008.6 |
| 20260509095408 | 21 | 195 | 11.3 | 14.5 | 0.00 | 0.00 | 0.00 | 93 | 1008.1 |
| 20260509094905 | 21 | 202 | 19.3 | 20.9 | 0.00 | 0.00 | 0.00 | 93 | 1007.6 |
| 20260509094401 | 21 | 190 | 6.4 | 14.5 | 0.00 | 0.00 | 0.00 | 93 | 1007.8 |
| 20260509093859 | 21 | 155 | 17.7 | 17.7 | 0.00 | 0.00 | 0.00 | 93 | 1007.9 |
| 20260509093356 | 21 | 164 | 3.2 | 19.3 | 0.00 | 0.00 | 0.00 | 93 | 1007.7 |
| 20260509092855 | 21 | 174 | 6.4 | 19.3 | 0.00 | 0.00 | 0.00 | 93 | 1007.9 |
| 20260509092352 | 21 | 188 | 11.3 | 20.9 | 0.00 | 0.00 | 0.00 | 93 | 1007.9 |
| 20260509091850 | 21 | 189 | 17.7 | 25.7 | 0.00 | 0.00 | 0.00 | 93 | 1008.1 |
| 20260509091346 | 21 | 134 | 6.4 | 20.9 | 0.00 | 0.00 | 0.00 | 93 | 1007.9 |
| 20260509090844 | 21 | 209 | 20.9 | 24.1 | 0.00 | 0.00 | 0.00 | 93 | 1008.1 |
| 20260509090341 | 21 | 203 | 14.5 | 19.3 | 0.00 | 0.00 | 0.00 | 93 | 1008.0 |
| 20260509085838 | 21 | 180 | 8.0 | 25.7 | 0.00 | 0.00 | 0.00 | 93 | 1008.0 |
| 20260509085335 | 21 | 189 | 6.4 | 20.9 | 0.00 | 0.00 | 0.00 | 93 | 1008.3 |
| 20260509084832 | 21 | 183 | 14.5 | 24.1 | 0.00 | 0.00 | 0.00 | 93 | 1008.3 |
| 20260509084329 | 20 | 178 | 4.8 | 19.3 | 0.00 | 0.00 | 0.00 | 93 | 1008.4 |
| 20260509083827 | 20 | 174 | 9.7 | 19.3 | 0.00 | 0.00 | 0.00 | 94 | 1008.7 |
| 20260509083323 | 20 | 197 | 12.9 | 17.7 | 0.00 | 0.00 | 0.00 | 94 | 1008.8 |
| 20260509082820 | 20 | 180 | 4.8 | 12.9 | 0.00 | 0.00 | 0.00 | 94 | 1009.3 |
| 20260509082316 | 20 | 211 | 9.7 | 12.9 | 0.00 | 0.00 | 0.00 | 94 | 1009.4 |
| 20260509081814 | 20 | 181 | 11.3 | 11.3 | 0.00 | 0.00 | 0.00 | 94 | 1009.8 |
| 20260509081310 | 20 | 165 | 3.2 | 6.4 | 0.00 | 0.00 | 0.00 | 94 | 1009.6 |
| 20260509080809 | 20 | 162 | 1.6 | 9.7 | 0.00 | 0.00 | 0.00 | 94 | 1010.3 |
| 20260509080306 | 20 | 183 | 3.2 | 8.0 | 0.00 | 0.00 | 0.00 | 93 | 1010.6 |
| 20260509075804 | 20 | 200 | 9.7 | 9.7 | 0.00 | 0.00 | 0.00 | 93 | 1010.8 |
| 20260509075301 | 20 | 203 | 6.4 | 9.7 | 0.00 | 0.00 | 0.00 | 93 | 1010.9 |
| 20260509074758 | 20 | 214 | 9.7 | 12.9 | 0.00 | 0.00 | 0.00 | 94 | 1011.2 |
| 20260509074256 | 20 | 192 | 6.4 | 14.5 | 0.00 | 0.00 | 0.00 | 94 | 1011.5 |
| 20260509073752 | 20 | 194 | 9.7 | 16.1 | 0.00 | 0.00 | 0.00 | 94 | 1011.6 |
| 20260509073248 | 20 | 191 | 9.7 | 11.3 | 0.00 | 0.00 | 0.00 | 94 | 1012.1 |
| 20260509072745 | 20 | 243 | 0.0 | 1.6 | 0.00 | 0.00 | 0.00 | 95 | 1012.3 |
| 20260509072242 | 20 | 69 | 0.0 | 3.2 | 0.00 | 0.00 | 0.00 | 94 | 1012.1 |
| 20260509071738 | 20 | 230 | 0.0 | 1.6 | 0.00 | 0.00 | 0.00 | 94 | 1012.1 |
| 20260509071236 | 20 | 218 | 0.0 | 0.0 | 0.00 | 0.00 | 0.00 | 94 | 1012.1 |
| 20260509070733 | 20 | 224 | 0.0 | 0.0 | 0.00 | 0.00 | 0.00 | 94 | 1012.1 |
| 20260509070229 | 20 | 169 | 0.0 | 1.6 | 0.00 | 0.00 | 0.00 | 94 | 1012.3 |
| 20260509065726 | 21 | 301 | 0.0 | 1.6 | 0.00 | 0.00 | 0.00 | 94 | 1012.3 |
| 20260509065222 | 21 | 186 | 0.0 | 0.0 | 0.00 | 0.00 | 0.00 | 94 | 1012.3 |
| 20260509064718 | 21 | 113 | 0.0 | 0.0 | 0.00 | 0.00 | 0.00 | 94 | 1012.3 |
| 20260509064216 | 21 | 210 | 0.0 | 4.8 | 0.00 | 0.00 | 0.00 | 95 | 1012.1 |
| 20260509063713 | 20 | 184 | 3.2 | 3.2 | 0.00 | 0.00 | 0.00 | 95 | 1012.0 |
| 20260509063209 | 20 | 322 | 0.0 | 1.6 | 0.00 | 0.00 | 0.00 | 95 | 1012.2 |
| 20260509062707 | 20 | 19 | 0.0 | 3.2 | 0.00 | 0.00 | 0.00 | 95 | 1012.3 |
| 20260509062204 | 20 | 19 | 3.2 | 4.8 | 0.00 | 0.00 | 0.00 | 95 | 1012.0 |
| 20260509061701 | 20 | 26 | 3.2 | 3.2 | 0.00 | 0.00 | 0.00 | 95 | 1011.9 |
| 20260509061158 | 20 | 37 | 0.0 | 3.2 | 0.00 | 0.00 | 0.00 | 95 | 1012.0 |
| 20260509060655 | 20 | 48 | 3.2 | 6.4 | 0.00 | 0.00 | 0.00 | 95 | 1012.0 |
| 20260509060152 | 20 | 20 | 4.8 | 6.4 | 0.00 | 0.00 | 0.00 | 94 | 1012.1 |
| 20260509055647 | 20 | 29 | 3.2 | 4.8 | 0.00 | 0.00 | 0.00 | 94 | 1011.9 |
| 20260509055144 | 20 | 19 | 3.2 | 3.2 | 0.00 | 0.00 | 0.00 | 94 | 1011.6 |
| 20260509054640 | 20 | 29 | 0.0 | 3.2 | 0.00 | 0.00 | 0.00 | 94 | 1011.7 |
| 20260509054138 | 20 | 13 | 3.2 | 4.8 | 0.00 | 0.00 | 0.00 | 93 | 1011.6 |
| 20260509053636 | 21 | 221 | 0.0 | 3.2 | 0.00 | 0.00 | 0.00 | 93 | 1011.0 |
| 20260509053132 | 20 | 155 | 0.0 | 1.6 | 0.00 | 0.00 | 0.00 | 93 | 1011.2 |
| 20260509052631 | 20 | 44 | 0.0 | 3.2 | 0.00 | 0.00 | 0.00 | 93 | 1011.3 |
| 20260509052128 | 21 | 168 | 0.0 | 1.6 | 0.00 | 0.00 | 0.00 | 93 | 1011.3 |
| 20260509051626 | 21 | 343 | 0.0 | 0.0 | 0.00 | 0.00 | 0.00 | 92 | 1011.3 |
| 20260509051122 | 21 | 63 | 0.0 | 0.0 | 0.00 | 0.00 | 0.00 | 92 | 1011.2 |
| 20260509050620 | 21 | 135 | 0.0 | 3.2 | 0.00 | 0.00 | 0.00 | 91 | 1011.1 |
| 20260509050116 | 21 | 196 | 3.2 | 4.8 | 0.00 | 0.00 | 0.00 | 91 | 1011.0 |
| 20260509045614 | 21 | 229 | 0.0 | 3.2 | 0.00 | 0.33 | 0.33 | 91 | 1011.1 |
| 20260509045110 | 21 | 176 | 3.2 | 3.2 | 0.00 | 0.33 | 0.33 | 91 | 1011.1 |
| 20260509044608 | 21 | 144 | 1.6 | 1.6 | 0.00 | 0.33 | 0.33 | 91 | 1011.2 |
| 20260509044105 | 21 | 136 | 0.0 | 3.2 | 0.00 | 0.33 | 0.33 | 91 | 1011.1 |
| 20260509043601 | 21 | 158 | 1.6 | 1.6 | 0.00 | 0.33 | 0.33 | 91 | 1011.4 |
| 20260509043057 | 21 | 50 | 0.0 | 1.6 | 0.00 | 0.33 | 0.33 | 91 | 1011.6 |
| 20260509042553 | 21 | 31 | 0.0 | 3.2 | 0.00 | 0.33 | 0.33 | 90 | 1011.7 |
| 20260509042049 | 21 | 50 | 1.6 | 3.2 | 0.00 | 0.33 | 0.33 | 90 | 1011.6 |
| 20260509041546 | 21 | 6 | 0.0 | 1.6 | 0.00 | 0.33 | 0.33 | 90 | 1011.4 |
| 20260509041044 | 21 | 36 | 3.2 | 3.2 | 0.00 | 0.33 | 0.33 | 89 | 1011.3 |
| 20260509040542 | 21 | 24 | 3.2 | 3.2 | 0.00 | 0.33 | 0.33 | 89 | 1011.3 |
| 20260509040039 | 22 | 87 | 1.6 | 3.2 | 0.00 | 0.33 | 0.33 | 88 | 1010.7 |
| 20260509035536 | 22 | 122 | 1.6 | 4.8 | 0.00 | 0.33 | 0.33 | 88 | 1010.8 |
| 20260509035032 | 22 | 113 | 1.6 | 3.2 | 0.00 | 0.33 | 0.33 | 87 | 1010.6 |
| 20260509034531 | 22 | 202 | 0.0 | 3.2 | 0.00 | 0.33 | 0.33 | 87 | 1010.8 |
| 20260509034027 | 22 | 89 | 0.0 | 3.2 | 0.00 | 0.33 | 0.33 | 86 | 1010.8 |
| 20260509033524 | 22 | 144 | 0.0 | 6.4 | 0.00 | 0.33 | 0.33 | 86 | 1010.7 |
| 20260509033016 | 22 | 110 | 1.6 | 3.2 | 0.00 | 0.33 | 0.33 | 86 | 1010.8 |
| 20260509032513 | 22 | 192 | 4.8 | 6.4 | 0.00 | 0.33 | 0.33 | 85 | 1010.6 |
| 20260509032010 | 22 | 128 | 1.6 | 3.2 | 0.00 | 0.33 | 0.33 | 85 | 1010.5 |
| 20260509031507 | 22 | 118 | 1.6 | 3.2 | 0.00 | 0.33 | 0.33 | 85 | 1010.6 |
| 20260509031005 | 22 | 112 | 0.0 | 3.2 | 0.00 | 0.33 | 0.33 | 85 | 1010.7 |
| 20260509030502 | 22 | 107 | 1.6 | 3.2 | 0.00 | 0.33 | 0.33 | 84 | 1010.6 |
| 20260509025959 | 22 | 120 | 0.0 | 3.2 | 0.00 | 0.33 | 0.33 | 84 | 1010.3 |
| 20260509025454 | 22 | 178 | 3.2 | 9.7 | 0.00 | 0.33 | 0.33 | 84 | 1010.0 |
| 20260509024950 | 22 | 159 | 4.8 | 8.0 | 0.00 | 0.33 | 0.33 | 84 | 1009.9 |
| 20260509024446 | 22 | 140 | 1.6 | 4.8 | 0.00 | 0.33 | 0.33 | 84 | 1010.0 |
| 20260509023943 | 22 | 132 | 0.0 | 1.6 | 0.00 | 0.33 | 0.33 | 84 | 1010.1 |
| 20260509023441 | 22 | 143 | 0.0 | 1.6 | 0.00 | 0.33 | 0.33 | 84 | 1010.0 |
| 20260509022937 | 22 | 142 | 0.0 | 3.2 | 0.00 | 0.33 | 0.33 | 84 | 1010.0 |
| 20260509022434 | 22 | 116 | 0.0 | 1.6 | 0.00 | 0.33 | 0.33 | 84 | 1010.3 |
| 20260509021932 | 22 | 117 | 0.0 | 1.6 | 0.00 | 0.33 | 0.33 | 84 | 1010.1 |
| 20260509021428 | 22 | 127 | 0.0 | 1.6 | 0.00 | 0.33 | 0.33 | 83 | 1010.0 |
| 20260509020926 | 22 | 102 | 0.0 | 3.2 | 0.00 | 0.33 | 0.33 | 83 | 1010.2 |
| 20260509020424 | 22 | 157 | 0.0 | 1.6 | 0.00 | 0.33 | 0.33 | 83 | 1010.0 |
| 20260509015921 | 22 | 136 | 0.0 | 1.6 | 0.00 | 0.33 | 0.33 | 83 | 1009.9 |
| 20260509015420 | 22 | 113 | 0.0 | 0.0 | 0.00 | 0.33 | 0.33 | 83 | 1010.0 |
| 20260509014915 | 22 | 103 | 0.0 | 0.0 | 0.00 | 0.33 | 0.33 | 82 | 1009.9 |
| 20260509014413 | 23 | 89 | 0.0 | 3.2 | 0.00 | 0.33 | 0.33 | 82 | 1009.8 |
| 20260509013909 | 23 | 182 | 1.6 | 3.2 | 0.00 | 0.33 | 0.33 | 82 | 1009.8 |
| 20260509013406 | 23 | 121 | 1.6 | 1.6 | 0.00 | 0.33 | 0.33 | 82 | 1009.5 |
| 20260509012901 | 23 | 157 | 0.0 | 3.2 | 0.00 | 0.33 | 0.33 | 82 | 1009.5 |
| 20260509012358 | 23 | 105 | 0.0 | 3.2 | 0.00 | 0.33 | 0.33 | 82 | 1009.6 |
| 20260509011856 | 23 | 89 | 0.0 | 3.2 | 0.00 | 0.33 | 0.33 | 82 | 1009.6 |
| 20260509011353 | 23 | 107 | 0.0 | 3.2 | 0.00 | 0.33 | 0.33 | 82 | 1009.3 |
| 20260509010851 | 23 | 152 | 0.0 | 1.6 | 0.00 | 0.33 | 0.33 | 82 | 1009.2 |
| 20260509010348 | 23 | 178 | 1.6 | 3.2 | 0.00 | 0.33 | 0.33 | 82 | 1009.2 |
| 20260509005845 | 23 | 124 | 0.0 | 1.6 | 0.00 | 0.33 | 0.33 | 81 | 1009.3 |
| 20260509005343 | 23 | 177 | 1.6 | 3.2 | 0.00 | 0.33 | 0.33 | 81 | 1009.1 |
| 20260509004843 | 23 | 141 | 0.0 | 1.6 | 0.00 | 0.33 | 0.33 | 81 | 1009.3 |
| 20260509004340 | 23 | 117 | 0.0 | 1.6 | 0.00 | 0.33 | 0.33 | 81 | 1009.3 |
| 20260509003837 | 23 | 156 | 0.0 | 1.6 | 0.00 | 0.33 | 0.33 | 81 | 1009.2 |
| 20260509003335 | 23 | 165 | 1.6 | 3.2 | 0.00 | 0.33 | 0.33 | 81 | 1009.0 |
| 20260509002832 | 23 | 102 | 0.0 | 3.2 | 0.00 | 0.33 | 0.33 | 80 | 1009.1 |
| 20260509002329 | 23 | 75 | 0.0 | 0.0 | 0.00 | 0.33 | 0.33 | 79 | 1009.1 |
| 20260509001827 | 23 | 95 | 0.0 | 0.0 | 0.00 | 0.33 | 0.33 | 79 | 1009.1 |
| 20260509001323 | 23 | 89 | 0.0 | 0.0 | 0.00 | 0.33 | 0.33 | 79 | 1009.0 |
| 20260509000821 | 23 | 50 | 0.0 | 0.0 | 0.00 | 0.33 | 0.33 | 79 | 1009.2 |
| 20260509000318 | 23 | 0 | 0.0 | 1.6 | 0.00 | 0.33 | 0.33 | 79 | 1009.1 |
| 20260508235814 | 23 | 62 | 0.0 | 1.6 | 0.00 | 0.33 | 0.33 | 78 | 1009.2 |
| 20260508235311 | 23 | 86 | 0.0 | 3.2 | 0.00 | 0.33 | 0.33 | 78 | 1009.3 |
| 20260508234809 | 23 | 141 | 0.0 | 1.6 | 0.00 | 0.33 | 0.33 | 79 | 1009.2 |
| 20260508234259 | 23 | 150 | 0.0 | 3.2 | 0.00 | 0.33 | 0.33 | 79 | 1009.2 |
| 20260508233758 | 23 | 154 | 0.0 | 3.2 | 0.00 | 0.33 | 0.33 | 79 | 1009.3 |
| 20260508233257 | 23 | 105 | 0.0 | 4.8 | 0.00 | 0.33 | 0.33 | 79 | 1009.2 |
| 20260508232753 | 23 | 131 | 3.2 | 3.2 | 0.00 | 0.33 | 0.33 | 78 | 1009.3 |
| 20260508232250 | 23 | 104 | 1.6 | 9.7 | 0.00 | 0.33 | 0.33 | 78 | 1009.3 |
| 20260508231748 | 23 | 119 | 1.6 | 3.2 | 0.00 | 0.33 | 0.33 | 77 | 1009.3 |
| 20260508231244 | 23 | 124 | 3.2 | 6.4 | 0.00 | 0.33 | 0.33 | 76 | 1009.2 |
| 20260508230741 | 24 | 95 | 1.6 | 9.7 | 0.00 | 0.33 | 0.33 | 76 | 1009.2 |
| 20260508230237 | 24 | 135 | 1.6 | 4.8 | 0.00 | 0.33 | 0.33 | 76 | 1009.3 |
| 20260508225735 | 23 | 101 | 0.0 | 9.7 | 0.00 | 0.33 | 0.33 | 77 | 1009.2 |
| 20260508225232 | 25 | 192 | 3.2 | 11.3 | 0.00 | 0.33 | 0.33 | 75 | 1009.2 |
| 20260508224729 | 25 | 179 | 6.4 | 6.4 | 0.00 | 0.33 | 0.33 | 75 | 1009.4 |
| 20260508224227 | 23 | 124 | 1.6 | 6.4 | 0.00 | 0.33 | 0.33 | 77 | 1009.3 |
| 20260508223724 | 23 | 113 | 4.8 | 6.4 | 0.00 | 0.33 | 0.33 | 76 | 1009.2 |
| 20260508223221 | 23 | 180 | 3.2 | 9.7 | 0.00 | 0.33 | 0.33 | 77 | 1009.2 |
| 20260508222719 | 23 | 139 | 1.6 | 16.1 | 0.00 | 0.33 | 0.33 | 77 | 1009.4 |
| 20260508222216 | 23 | 92 | 1.6 | 4.8 | 0.00 | 0.33 | 0.33 | 78 | 1009.4 |
| 20260508221712 | 23 | 195 | 3.2 | 11.3 | 0.00 | 0.33 | 0.33 | 78 | 1009.5 |
| 20260508221208 | 23 | 200 | 14.5 | 16.1 | 0.00 | 0.33 | 0.33 | 75 | 1009.5 |
| 20260508220704 | 23 | 96 | 1.6 | 4.8 | 0.00 | 0.33 | 0.33 | 79 | 1009.4 |
| 20260508220201 | 22 | 199 | 4.8 | 8.0 | 0.00 | 0.33 | 0.33 | 80 | 1009.6 |
| 20260508215658 | 22 | 197 | 4.8 | 6.4 | 0.00 | 0.33 | 0.33 | 79 | 1009.6 |
| 20260508215154 | 22 | 195 | 1.6 | 3.2 | 0.00 | 0.33 | 0.33 | 80 | 1010.1 |
| 20260508214651 | 21 | 165 | 0.0 | 6.4 | 0.00 | 0.33 | 0.33 | 83 | 1010.1 |
| 20260508214149 | 21 | 156 | 0.0 | 3.2 | 0.00 | 0.33 | 0.33 | 86 | 1010.2 |
| 20260508213645 | 21 | 195 | 3.2 | 3.2 | 0.00 | 0.33 | 0.33 | 86 | 1010.2 |